Location: Clermont
(50.2608°N, 4.3172°E)
Time: 07:31:05
(UTC+00:00)

Cosmos 1980 Rocket - Pass Details

Date: 13 August 2020
Orbit: 830 x 849 km, 71.0° (Epoch: 26 September)

Event Time Altitude Azimuth Distance (km) Brightness Sun altitude
Rises 21:00:48 0° 323° (NW) 3,418 7.2 -15.8°
Reaches altitude 10° 21:03:36 10° 311° (NW) 2,475 6.0 -16.1°
Maximum altitude 21:08:13 26° 257° (WSW) 1,591 3.9 -16.6°
Drops below altitude 10° 21:12:48 10° 202° (SSW) 2,450 4.3 -17.1°
Enters shadow 21:13:32 - 198° (SSW) 2,682 4.5 -17.1°
